Regional Weather Roundup
Issued by NWS Cleveland, OH

Home | Current Version | Previous Version | Graphics & Text | Print | Product List | Glossary On
Versions: 1 2 3 4 5 6 7 8 9 10 11 12 13 14 15 16 17 18 19 20 21 22 23 24 25 26 27 28 29 30 31 32 33 34 35 36 37 38 39 40 41 42 43 44 45 46 47 48 49 50
000
ASUS41 KCLE 021810
RWRCLE
OHIO REGIONAL WEATHER ROUNDUP
NATIONAL WEATHER SERVICE WILMINGTON, OH
200 PM EDT TUE JUN 02 2015

NOTE: "FAIR" INDICATES FEW OR NO CLOUDS BELOW 12,000 FEET WITH NO
SIGNIFICANT WEATHER AND/OR OBSTRUCTIONS TO VISIBILITY.

OHZ001>008-015>018-024>027-034-035-043-044-021900-
   NORTHWEST OHIO

CITY           SKY/WX    TMP DP  RH WIND       PRES   REMARKS
DEFIANCE       MOSUNNY   69  51  52 NE13G23   30.17F
FINDLAY        PTSUNNY   67  52  58 NE15G24   30.16F
TOLEDO EXPRESS MOSUNNY   67  48  50 E14G22    30.18F
TOLEDO EXEC    MOSUNNY   65  51  60 E10G21    30.20F
LIMA           PTSUNNY   65  53  65 NE10      30.16F
$$

OHZ009>014-019>023-028>033-038-089-021900-
   NORTHEAST OHIO

CITY           SKY/WX    TMP DP  RH WIND       PRES   REMARKS
CLE-HOPKINS    MOSUNNY   63  51  65 NE18G24   30.19F
CLE-LAKEFRONT  SUNNY     60  50  69 NE22G28   30.17F
CUY CO. ARPT   MOSUNNY   66 N/A N/A NE14      30.17F
LORAIN-ELYRIA  SUNNY     62  52  69 E15       30.18F
ASHTABULA      MOSUNNY   62  52  69 VRB6      30.18F
AKRON-CANTON   CLOUDY    62  50  64 E10       30.16F
WOOSTER        MOSUNNY   63  53  70 E8        30.16F
MANSFIELD      PTSUNNY   66  53  63 N8        30.15F
YOUNGSTOWN     CLOUDY    64  51  62 NE13      30.15F
$$

OHZ042-051>053-060>062-070>072-077>081-021900-
  SOUTHWEST OHIO

CITY           SKY/WX    TMP DP  RH WIND       PRES   REMARKS
CINC-COVINGTON CLOUDY    59  51  75 NE9       30.15F
CINC-LUNKEN    CLOUDY    58  51  78 NE7       30.16F
HAMILTON       CLOUDY    58  51  78 NE5       30.17F
DAYTON         CLOUDY    59  51  75 NE8       30.17F
WRIGHT-PAT AFB CLOUDY    57  50  77 NE7       30.16F
DAYTON GENERAL CLOUDY    57  50  77 E6        30.15F
WILMINGTON     CLOUDY    57  49  74 NE7       30.15F
$$

OHZ036-037-039>041-045>050-054>059-063>069-073>076-082>088-021900-
  CENTRAL AND SOUTHEAST OHIO

CITY           SKY/WX    TMP DP  RH WIND       PRES   REMARKS
COLUMBUS       CLOUDY    62  51  67 CALM      30.14F
OSU AIRPORT    CLOUDY    62  51  67 NE6       30.15F
BOLTON FIELD   CLOUDY    59  52  77 NW6       30.16F
RICKENBACK AFB CLOUDY    60  51  74 NE6       30.15S
NEWARK         CLOUDY    61  51  70 N6        30.14F
MARION         MOSUNNY   65  53  65 E12       30.16F
LANCASTER      CLOUDY    61  52  72 NE7       30.15F
ZANESVILLE     CLOUDY    59  50  72 N5        30.14F
NEW PHILLY     CLOUDY    60  50  69 NE6       30.17S
$$


USA.gov is the U.S. government's official web portal to all federal, state and local government web resources and services.